Regional Weather Roundup
Issued by NWS Midland/Odessa, TX

Home | Current Version | Previous Version | Text Only | Print | Product List | Glossary On
Versions: 1 2 3 4 5 6 7 8 9 10 11 12 13 14 15 16 17 18 19 20 21 22 23 24 25 26 27 28 29 30 31 32 33 34 35 36 37 38 39 40 41 42 43 44 45 46 47 48 49 50
000
ASUS44 KMAF 201410
RWRMAF
MIDLAND AREA WEATHER ROUNDUP
NATIONAL WEATHER SERVICE MIDLAND TX
900 AM CDT SUN AUG 20 2017

...IN SOUTHWEST TEXAS AND SOUTHEAST NEW MEXICO...

CITY           SKY/WX    TMP DP  RH WIND       PRES   REMARKS
ALPINE         CLOUDY    71  60  68 CALM      30.20R
ANDREWS        FAIR      76  63  62 SE7       30.09R
ARTESIA        CLOUDY    73  70  88 SE6       30.09S
BIG SPRING     SUNNY     77  67  71 S9        30.09R
CARLSBAD       SUNNY     73  68  84 CALM      30.06R
DRYDEN           N/A     78  69  73 E12       30.02R
FORT STOCKTON  SUNNY     76  61  59 S12       30.06R
GUAD PASS      MOSUNNY   68  61  78 W8        30.20S
HOBBS          SUNNY     72  63  73 SE7       30.10R
MARFA          SUNNY     68  61  78 N3        30.19R
MIDLAND AIRPK  CLOUDY    77  64  62 S5        30.07S
MIDLAND INTL   CLOUDY    77  63  61 S9        30.07R
ODESSA         MOSUNNY   77  63  61 S9        30.07R
PECOS          SUNNY     75  67  76 E5        30.03R
PRESIDIO       FAIR      74  63  67 CALM      30.08R
SEMINOLE       CLOUDY    73  64  73 SE6       30.10R
SNYDER         SUNNY     76  65  67 S7        30.07R
WINK           CLOUDY    76  61  59 SE13      30.03R
$$
...OTHER STATIONS IN TEXAS...

CITY           SKY/WX    TMP DP  RH WIND       PRES   REMARKS
ABILENE        SUNNY     78  67  68 S14       30.04R
AMARILLO       MOSUNNY   70  61  73 S12       30.07R
AUSTIN         MOSUNNY   82  74  76 SW7       30.01R
BROWNSVILLE    SUNNY     84  78  82 SE7       29.96R
CORPUS CHRISTI MOSUNNY   83  78  85 S6        29.97R
DALLAS FTW     MOSUNNY   85  70  60 S7        29.99R
DEL RIO        SUNNY     80  71  74 E9        29.97R
EL PASO        RAIN      67  66  97 N6        30.10R
HOUSTON INT    MOSUNNY   85  77  77 CALM      30.02R
LUBBOCK        MOSUNNY   74  64  71 S9        30.07R
SAN ANGELO     SUNNY     79  67  66 SW8       30.04R
SAN ANTONIO    MOSUNNY   81  73  76 S8        30.02R
WACO           SUNNY     82  70  66 SW7       30.01R
WICHITA FALLS  NOT AVBL
$$
...OTHER LOCATIONS IN NEW MEXICO...

CITY           SKY/WX    TMP DP  RH WIND       PRES   REMARKS
ALAMOGORDO     CLOUDY    68  59  73 S8G17     30.16R
ALBUQUERQUE    PTSUNNY   72  50  45 CALM      30.16R
CANNON AFB     PTSUNNY   69  69 100 W5        30.13R
CLOVIS         CLOUDY    69  63  81 SW7       30.12R
HOLLOMAN AFB   LGT RAIN  69  60  73 S20       30.16R
ROSWELL        MOSUNNY   75  63  66 SE9       30.08R
RUIDOSO        NOT AVBL
SANTA FE       CLOUDY    64  49  57 N8        30.21R
TRUTH OR CONSE CLOUDY    69  56  62 SW10      30.13R
TUCUMCARI      PTSUNNY   72  59  63 W5        30.06S
$$



USA.gov is the U.S. government's official web portal to all federal, state and local government web resources and services.